Temperature
7 7 8 8 8 8 9 9 9 9 10 10 10 10 10 10 10 10 10 10 10 11 11 11 11 11 11 11 10 10 10 10 10 10 9 9 9 9 9 9 8 8 8
7 7 7 8 8 8 8 9 9 9 9 9 9 10 10 10 10 9 10 10 10 10 10 10 10 10 10 10 10 10 10 10 10 9 8 8 8 8 8 8 8 8 7
6 6 7 7 8 8 8 8 8 9 9 9 9 9 9 9 9 9 9 9 9 10 10 10 10 10 10 10 9 9 9 9 9 9 8 8 8 8 8 8 7 7 7
6 6 6 7 7 8 8 8 8 8 8 8 8 8 9 9 9 9 9 9 9 9 9 9 9 9 9 9 9 9 9 9 8 8 8 8 7 7 7 7 7 7 7
6 6 6 6 7 7 7 7 8 8 8 8 8 8 8 8 8 8 8 8 8 8 9 9 9 9 9 9 9 8 8 8 8 8 8 7 7 7 6 6 6 6 6
6 6 6 6 6 6 7 7 7 7 7 7 7 7 7 7 8 8 8 8 8 8 8 8 8 8 8 8 8 8 8 8 7 7 7 7 7 6 6 6 6 6 6
5 5 6 6 6 6 7 6 6 7 7 7 7 7 7 7 7 7 7 7 7 8 8 8 8 8 8 8 8 8 8 7 7 7 7 7 6 6 6 6 5 5 5
5 5 5 6 6 6 6 6 6 6 6 6 6 7 7 7 7 7 7 7 7 7 7 7 7 7 7 7 7 7 7 7 7 6 6 6 6 6 6 6 5 5 5
4 4 5 5 6 6 6 6 6 6 6 6 6 6 6 6 6 6 6 6 6 6 7 7 7 6 6 7 7 7 7 6 6 6 6 6 6 6 6 5 5 4 4
3 3 4 5 5 5 5 5 5 5 5 5 6 6 6 6 6 6 6 6 6 6 6 6 6 6 6 6 6 6 6 6 6 6 6 6 6 6 5 5 5 4 4
3 3 3 4 5 5 5 5 5 5 5 5 5 5 5 5 6 6 6 6 6 6 6 6 6 6 6 6 6 6 6 6 6 5 5 6 5 5 5 5 5 4 4
2 3 3 4 4 4 4 4 4 4 4 4 4 5 5 5 5 5 5 5 5 5 5 5 5 5 5 5 5 5 5 5 5 5 5 5 5 5 5 4 4 4 4
2 2 3 3 4 4 4 4 4 4 4 4 4 4 4 4 5 5 5 5 5 5 5 5 5 5 5 5 5 5 5 5 5 5 5 5 5 5 4 4 4 4 4
1 2 2 3 3 3 3 3 3 4 3 3 4 4 4 4 4 4 4 4 4 4 4 4 4 5 5 4 5 4 4 4 4 4 4 4 4 4 4 4 4 4 4
1 1 2 2 3 3 3 3 3 3 3 3 3 3 3 3 4 4 4 4 4 4 4 4 4 4 4 4 4 4 4 4 4 4 4 4 4 4 4 4 3 3 3
1 1 1 1 2 2 3 3 3 3 3 3 3 3 3 3 3 3 3 3 3 3 3 3 3 4 4 4 3 3 3 3 3 3 3 3 3 3 3 3 3 3 3
0 0 1 1 1 2 2 2 2 2 2 2 2 2 2 2 2 3 3 3 3 3 3 3 3 3 3 3 3 3 3 3 3 3 3 3 3 3 3 3 3 3 2
0 0 1 1 1 1 1 2 2 2 2 2 2 2 2 2 2 2 2 2 2 2 2 2 2 2 2 2 2 2 2 2 2 2 2 2 2 3 2 2 2 2 2
0 0 0 1 1 1 1 1 1 1 1 1 1 1 1 1 1 1 1 2 2 2 2 2 2 2 2 2 2 1 1 1 1 2 2 2 2 2 2 2 2 2 2
-0 -0 0 0 0 1 1 1 1 1 1 1 1 1 1 1 1 1 1 1 1 1 1 1 1 1 1 1 1 1 1 1 1 1 1 1 1 1 1 1 1 2 2
-1 -0 -0 -0 -0 0 0 0 0 0 0 0 0 0 0 0 -0 -0 0 0 0 0 1 1 1 1 1 1 1 0 0 0 0 0 1 1 1 1 1 1 1 1 1
-1 -1 -1 -1 -1 -0 -0 -0 -0 -0 -0 -0 -0 -0 -0 -0 -1 -1 -0 -0 -0 -0 -0 0 0 -0 -0 0 -0 -0 -0 -0 -0 -0 0 0 0 0 1 1 1 1 1
-2 -1 -1 -1 -1 -1 -1 -1 -1 -1 -1 -1 -1 -1 -1 -1 -1 -1 -1 -1 -1 -1 -1 -1 -1 -1 -1 -1 -1 -1 -1 -1 -1 -1 -0 -0 -0 0 0 0 1 1 1
-2 -2 -2 -2 -2 -2 -2 -2 -1 -1 -1 -1 -1 -1 -2 -2 -2 -2 -1 -1 -1 -1 -1 -1 -1 -1 -1 -1 -1 -1 -1 -1 -1 -1 -1 -1 -0 -0 -0 0 0 0 0
-2 -2 -2 -2 -2 -2 -2 -2 -2 -2 -2 -2 -2 -2 -2 -2 -2 -2 -2 -2 -2 -2 -2 -2 -2 -2 -2 -2 -2 -2 -2 -2 -2 -2 -1 -1 -1 -1 -1 -1 -0 -0 0
-3 -3 -3 -3 -3 -3 -3 -3 -2 -3 -2 -3 -3 -3 -3 -3 -3 -3 -2 -2 -2 -2 -2 -2 -2 -2 -2 -2 -2 -2 -2 -2 -2 -2 -2 -2 -2 -2 -1 -1 -1 -1 -0
Wind_Speed
2 2 2 2 2 2 2 3 3 2 2 2 2 1 1 2 2 2 2 2 2 2 2 2 2 2 1 1 2 2 2 1 1 1 0 1 1 1 0 0 1 2 3
1 1 1 1 1 1 1 2 2 2 2 1 1 1 1 1 1 1 2 2 2 2 2 2 2 2 1 1 1 1 2 1 1 1 1 1 2 1 1 1 1 2 3
3 2 1 1 1 1 1 1 1 2 1 1 2 2 2 1 1 1 1 1 1 2 1 1 2 2 2 2 2 2 2 2 2 0 1 1 2 2 2 1 2 3 3
3 2 2 2 2 1 1 1 1 1 1 2 2 2 1 1 1 1 1 1 1 2 1 1 2 2 1 1 1 1 1 2 2 2 1 1 1 2 2 2 2 3 4
3 2 2 2 1 1 1 1 1 1 1 1 1 1 1 0 1 1 2 1 1 1 2 1 1 1 1 1 1 1 1 1 2 2 1 1 1 1 2 3 3 3 3
3 2 2 1 1 1 1 1 1 1 1 1 1 1 1 1 1 1 1 1 0 0 1 0 0 0 0 1 1 1 2 2 2 2 2 2 1 2 2 3 4 4 4
3 3 2 1 1 1 1 1 1 1 1 1 1 1 1 1 1 1 1 1 0 0 1 1 0 1 1 1 1 1 2 3 3 3 2 3 3 2 2 3 3 5 4
1 2 2 2 2 2 2 2 2 1 1 1 1 1 1 1 1 1 1 1 1 1 1 1 0 1 1 1 1 1 1 2 3 3 3 3 3 2 3 2 3 4 4
1 1 1 2 2 2 2 2 2 2 1 1 1 1 1 1 1 1 1 1 1 1 1 1 1 1 1 1 2 1 2 2 3 3 4 3 2 2 3 3 3 3 4
2 2 1 1 1 2 2 2 2 2 2 1 1 1 1 1 1 1 1 1 1 1 1 1 1 1 1 1 2 2 2 2 2 3 4 3 3 3 2 3 4 4 5
2 2 2 2 1 1 1 2 2 2 1 2 1 1 1 1 2 2 2 1 1 1 2 2 2 2 2 2 2 2 2 2 2 2 3 3 3 3 3 3 4 4 4
3 2 2 1 1 1 1 1 1 1 2 2 2 2 2 2 2 2 2 2 2 2 1 1 2 2 2 2 3 2 2 3 3 3 3 3 3 4 3 3 4 4 4
3 2 2 1 1 1 1 1 1 1 1 1 2 2 2 2 2 2 2 2 2 2 1 1 2 2 2 3 3 3 3 3 3 3 4 3 3 3 3 4 4 4 4
3 3 2 2 2 2 2 2 2 1 1 1 2 2 2 2 2 2 2 2 2 2 2 2 2 2 2 3 2 3 3 3 3 3 4 4 3 4 4 4 4 4 4
4 3 3 3 2 2 2 3 3 2 2 2 2 2 2 2 2 2 2 2 2 2 2 2 2 2 2 2 2 3 3 3 3 3 3 3 4 4 4 4 4 4 4
5 4 4 3 3 3 3 3 3 2 2 2 2 2 2 2 2 3 2 2 2 2 2 2 2 2 2 3 4 3 3 3 4 4 4 3 3 4 4 5 5 5 4
5 5 4 4 3 3 3 3 3 2 2 2 2 2 2 2 3 3 3 3 3 3 3 3 3 3 3 3 3 3 3 3 3 4 4 3 3 4 4 4 4 4 5
5 5 4 4 3 3 3 3 2 2 2 2 2 2 2 3 3 3 3 3 3 3 3 3 3 4 3 3 3 3 3 3 3 3 4 4 4 3 4 4 4 4 5
4 4 4 3 3 2 2 1 1 1 2 2 2 2 3 3 3 3 3 3 3 3 3 3 3 4 3 3 3 2 2 3 4 3 4 4 4 4 4 4 5 5 5
4 3 3 2 2 2 1 1 1 2 2 3 3 3 3 3 3 3 4 3 3 3 3 3 3 4 3 3 3 3 2 3 3 3 3 4 5 4 4 4 5 5 6
3 3 2 1 2 2 1 1 1 2 3 3 3 3 3 3 3 3 3 3 3 3 2 3 3 3 3 3 3 3 3 3 3 3 3 3 5 5 5 5 4 6 6
3 2 2 2 2 2 1 1 2 3 3 3 3 3 3 2 2 3 3 2 2 2 2 2 3 3 2 3 3 4 4 4 4 4 4 4 5 5 6 5 5 6 5
2 2 2 2 2 2 2 2 3 4 3 3 3 3 3 2 2 2 3 2 2 2 2 2 3 3 2 2 3 4 5 5 4 4 5 5 5 6 4 4 5 4 3
2 2 2 2 2 3 3 3 4 3 3 3 3 3 2 3 2 2 2 2 2 2 2 3 3 3 3 3 2 3 3 4 4 4 4 5 5 4 4 4 3 3 3
2 2 2 3 3 3 3 3 3 3 3 3 3 3 3 3 3 3 3 3 3 3 3 4 4 3 4 4 6 4 4 4 3 3 3 3 3 3 3 3 3 2 2
2 2 3 4 4 3 4 3 3 3 3 3 3 3 3 3 3 3 3 3 4 5 5 5 5 4 5 6 6 7 6 6 4 3 3 3 3 3 3 3 3 3 3
Wind_Direction
172 145 129 117 115 92 87 85 89 84 80 86 89 90 87 86 72 58 52 56 69 98 102 96 113 113 135 160 160 151 150 124 132 169 210 205 208 253 294 304 332 353 359
188 163 126 115 138 134 100 85 89 93 81 76 94 100 106 113 92 67 58 39 48 85 98 112 121 127 136 146 160 161 179 146 157 224 223 233 216 220 273 284 308 325 337
215 205 197 182 176 157 92 94 117 97 89 91 85 84 77 93 105 80 53 31 44 60 84 116 114 122 140 151 175 191 201 190 175 179 262 251 251 281 233 280 293 316 319
224 210 204 206 201 186 125 125 103 101 98 101 114 124 134 149 169 165 129 78 75 58 52 81 107 123 130 149 172 187 209 213 210 203 258 311 328 267 269 249 282 310 309
222 216 214 213 195 162 105 97 113 103 101 121 136 147 147 104 90 129 134 119 96 64 32 81 113 136 141 140 151 187 192 215 229 225 221 228 263 269 269 275 288 295 297
227 225 224 188 152 116 84 91 137 122 158 173 160 169 174 144 116 120 144 130 106 89 22 9 1 175 119 164 184 210 211 213 227 238 235 229 223 243 258 275 284 288 292
219 217 214 194 171 167 155 180 178 168 182 182 187 203 204 195 195 205 199 182 216 277 321 312 318 318 293 237 217 218 229 224 228 234 242 243 247 242 257 273 288 295 296
237 226 223 214 200 191 187 197 194 194 195 195 202 206 206 213 223 238 229 219 230 245 276 273 253 292 302 279 246 221 231 241 237 238 243 247 255 250 248 262 280 292 288
326 273 246 238 216 203 199 202 201 205 210 214 211 217 217 224 232 246 259 245 243 264 230 239 217 226 261 272 261 249 240 248 246 244 246 250 254 257 258 253 251 262 282
334 325 312 305 279 230 209 205 208 208 214 224 227 234 242 247 248 237 259 269 253 242 236 258 239 224 223 243 255 261 259 256 262 253 244 247 254 255 260 255 254 257 263
319 318 320 323 330 322 220 202 213 215 222 233 244 248 251 257 248 244 251 262 258 233 236 237 230 224 226 234 242 256 255 261 269 266 254 251 257 262 261 261 254 255 260
319 319 321 339 353 359 346 247 225 222 242 241 241 252 257 255 251 252 256 265 254 234 231 247 235 229 233 237 240 251 262 262 262 264 265 266 269 266 267 266 266 261 264
314 316 322 329 334 338 333 323 293 275 277 260 246 253 258 255 258 265 263 260 251 233 219 243 249 239 236 237 240 246 253 262 264 265 265 269 271 277 274 273 272 273 278
304 301 299 310 326 327 322 317 317 298 280 264 253 259 265 267 268 271 272 259 246 233 223 235 255 244 235 231 243 250 253 264 266 267 269 270 269 274 282 277 274 277 282
317 304 297 300 313 321 318 316 314 301 271 263 265 275 283 287 282 274 270 264 251 243 239 233 251 241 234 233 250 257 256 269 272 268 268 271 278 286 287 285 285 282 278
313 304 297 297 303 305 305 306 303 299 272 265 277 291 295 294 290 281 271 263 256 249 242 239 253 238 240 260 250 260 262 265 268 273 274 278 271 282 290 291 295 290 273
301 297 290 286 290 293 293 292 295 298 278 270 286 292 291 294 297 294 280 263 254 248 246 249 259 249 250 259 250 256 268 263 266 272 277 280 281 287 282 287 289 289 287
302 300 294 292 295 292 287 289 296 294 282 281 289 294 297 298 299 292 287 279 263 254 250 254 268 259 254 260 254 257 262 261 267 272 274 271 275 280 293 289 283 285 287
299 297 297 296 300 298 290 275 280 288 291 292 297 299 297 296 297 298 294 290 277 268 261 257 267 262 258 258 262 274 265 264 271 274 273 275 274 285 297 290 287 291 296
318 314 313 310 313 317 303 280 304 312 308 302 297 294 290 287 288 294 296 297 290 278 273 266 272 263 261 263 262 271 265 272 279 277 273 272 280 289 292 285 285 289 299
327 329 327 326 325 325 314 308 323 316 313 308 299 297 294 289 287 293 295 295 294 288 279 276 282 272 267 263 261 272 271 273 280 279 276 272 277 283 285 288 284 290 301
337 337 333 340 342 338 323 312 316 315 312 306 299 298 300 298 292 293 295 294 292 286 285 282 292 283 275 273 274 277 282 288 276 276 279 283 286 286 285 284 296 301 302
324 322 321 334 341 333 318 305 314 316 308 301 299 301 307 306 299 294 295 295 289 282 284 286 286 287 288 280 279 281 287 284 277 280 287 293 295 294 280 279 290 287 286
318 316 313 313 321 323 313 304 309 311 304 301 303 306 309 314 312 302 292 285 279 278 278 282 282 283 283 283 284 282 285 284 278 282 285 285 284 284 285 283 277 276 277
302 294 287 290 301 312 311 314 313 310 304 302 305 308 307 306 308 304 295 288 281 281 280 277 280 279 282 290 296 293 282 280 281 292 284 281 281 283 286 291 293 290 285
288 282 286 291 299 305 308 314 314 307 301 300 305 308 307 308 309 311 313 302 288 297 293 290 290 289 289 299 298 295 291 287 282 272 270 272 274 278 284 290 297 297 291
Height
1511 1511 1511 1512 1513 1514 1514 1514 1515 1517 1517 1518 1518 1519 1520 1521 1521 1522 1522 1523 1524 1524 1525 1525 1525 1526 1527 1527 1528 1528 1529 1529 1529 1529 1529 1529 1528 1528 1527 1526 1525 1524 1522
1510 1510 1510 1511 1512 1513 1513 1514 1514 1515 1516 1517 1517 1518 1518 1519 1520 1521 1521 1521 1522 1522 1522 1523 1523 1524 1525 1524 1525 1526 1526 1527 1527 1527 1527 1528 1528 1526 1525 1524 1523 1522 1520
1509 1509 1509 1509 1510 1511 1511 1512 1513 1514 1515 1516 1516 1517 1517 1518 1519 1519 1519 1520 1520 1520 1520 1521 1521 1522 1523 1522 1523 1524 1524 1525 1525 1526 1527 1527 1526 1524 1523 1522 1521 1520 1519
1508 1508 1508 1509 1509 1509 1510 1511 1512 1513 1514 1514 1515 1515 1515 1516 1517 1518 1518 1519 1519 1518 1519 1519 1519 1520 1520 1521 1521 1521 1522 1523 1523 1523 1524 1524 1523 1523 1521 1520 1519 1518 1516
1506 1507 1507 1508 1508 1508 1509 1510 1511 1512 1512 1513 1513 1513 1514 1515 1515 1516 1517 1517 1517 1517 1517 1517 1517 1518 1518 1518 1518 1519 1519 1520 1521 1521 1521 1521 1521 1520 1519 1518 1516 1515 1514
1505 1506 1506 1507 1507 1507 1508 1509 1510 1510 1511 1511 1511 1512 1512 1513 1513 1514 1515 1515 1515 1515 1515 1515 1515 1516 1516 1516 1516 1517 1517 1517 1518 1518 1518 1518 1518 1517 1517 1515 1513 1512 1511
1504 1505 1505 1505 1505 1506 1507 1508 1509 1509 1509 1509 1510 1510 1511 1511 1512 1512 1512 1513 1513 1513 1513 1513 1513 1514 1514 1514 1514 1514 1515 1515 1515 1515 1515 1515 1515 1515 1514 1513 1512 1510 1508
1503 1503 1503 1504 1505 1505 1506 1506 1507 1507 1508 1508 1508 1508 1509 1509 1510 1510 1510 1510 1511 1510 1511 1511 1511 1512 1512 1512 1512 1512 1512 1512 1513 1513 1513 1513 1513 1512 1512 1511 1510 1508 1506
1502 1502 1502 1503 1503 1504 1504 1504 1505 1506 1506 1506 1506 1506 1507 1508 1508 1508 1508 1509 1509 1509 1509 1509 1509 1510 1510 1510 1510 1510 1510 1510 1510 1510 1510 1510 1510 1509 1509 1508 1508 1507 1504
1501 1501 1500 1501 1501 1502 1502 1503 1503 1504 1504 1504 1504 1504 1505 1505 1506 1506 1506 1507 1507 1507 1507 1507 1507 1507 1507 1507 1508 1508 1507 1507 1507 1507 1507 1507 1507 1506 1506 1505 1505 1504 1503
1501 1500 1499 1499 1500 1500 1501 1501 1501 1501 1502 1501 1502 1502 1502 1503 1503 1504 1504 1504 1504 1505 1505 1504 1505 1505 1505 1505 1505 1505 1505 1505 1504 1504 1504 1504 1504 1503 1503 1502 1501 1500 1499
1500 1499 1498 1498 1498 1499 1499 1499 1499 1499 1499 1499 1499 1500 1500 1500 1501 1501 1502 1502 1502 1502 1502 1502 1502 1502 1502 1502 1502 1502 1502 1502 1502 1501 1501 1500 1500 1500 1499 1499 1498 1497 1495
1499 1498 1498 1497 1497 1497 1497 1497 1497 1497 1497 1497 1497 1497 1497 1498 1498 1498 1499 1499 1499 1499 1499 1499 1499 1499 1499 1499 1499 1499 1499 1499 1499 1498 1498 1497 1497 1496 1496 1495 1494 1493 1492
1498 1497 1497 1496 1496 1496 1496 1496 1495 1495 1495 1495 1495 1495 1495 1495 1495 1495 1495 1496 1496 1496 1496 1496 1496 1496 1496 1496 1496 1496 1496 1496 1496 1495 1494 1494 1494 1493 1492 1491 1491 1490 1488
1497 1496 1495 1495 1494 1494 1494 1494 1494 1493 1493 1493 1493 1492 1492 1492 1492 1492 1492 1492 1492 1492 1492 1492 1493 1493 1493 1493 1492 1493 1492 1492 1492 1492 1491 1491 1490 1490 1489 1488 1487 1486 1484
1495 1494 1493 1493 1493 1492 1492 1492 1492 1491 1491 1491 1490 1490 1490 1490 1489 1490 1489 1489 1489 1489 1489 1489 1489 1489 1489 1489 1489 1489 1489 1488 1488 1488 1487 1487 1486 1486 1485 1485 1484 1483 1481
1493 1492 1492 1491 1491 1491 1490 1490 1489 1489 1489 1488 1488 1488 1487 1487 1487 1486 1486 1486 1486 1486 1486 1486 1486 1486 1486 1486 1486 1485 1485 1485 1485 1485 1484 1483 1483 1482 1481 1481 1480 1479 1478
1492 1491 1490 1490 1489 1489 1488 1488 1487 1487 1486 1486 1486 1485 1485 1484 1484 1483 1483 1483 1483 1483 1483 1483 1482 1482 1482 1482 1482 1482 1482 1481 1481 1481 1480 1480 1479 1479 1478 1477 1476 1475 1474
1490 1489 1489 1488 1487 1487 1486 1486 1485 1485 1484 1484 1483 1483 1482 1482 1481 1481 1480 1480 1480 1480 1480 1480 1479 1479 1479 1479 1479 1478 1478 1478 1478 1477 1477 1476 1476 1475 1474 1473 1472 1470 1470
1488 1487 1487 1486 1486 1485 1484 1484 1483 1483 1482 1482 1481 1481 1480 1480 1479 1478 1478 1477 1477 1477 1477 1476 1476 1476 1475 1475 1475 1475 1475 1474 1474 1474 1473 1473 1472 1472 1470 1469 1468 1466 1466
1486 1486 1485 1484 1484 1483 1483 1482 1481 1481 1480 1480 1479 1478 1478 1477 1476 1476 1475 1475 1474 1474 1474 1473 1473 1473 1472 1472 1472 1472 1472 1471 1471 1470 1469 1469 1469 1468 1467 1466 1464 1463 1462
1484 1484 1483 1483 1482 1482 1481 1480 1479 1479 1478 1478 1477 1476 1475 1475 1474 1473 1472 1472 1471 1471 1471 1470 1470 1470 1470 1469 1469 1469 1468 1468 1467 1466 1466 1465 1465 1464 1463 1462 1461 1460 1459
1483 1482 1482 1481 1481 1480 1479 1478 1478 1477 1476 1475 1474 1473 1473 1472 1471 1471 1470 1469 1469 1468 1468 1467 1467 1467 1466 1466 1466 1465 1465 1464 1464 1463 1463 1462 1461 1461 1460 1459 1458 1457 1456
1481 1480 1480 1479 1478 1478 1477 1476 1475 1474 1473 1473 1472 1471 1470 1469 1469 1468 1468 1467 1466 1466 1465 1465 1464 1464 1463 1463 1462 1462 1462 1461 1460 1460 1459 1459 1458 1457 1456 1456 1455 1454 1453
1479 1478 1478 1477 1476 1476 1475 1474 1473 1472 1471 1470 1469 1468 1468 1467 1466 1466 1465 1464 1464 1464 1463 1463 1462 1461 1460 1460 1460 1459 1458 1458 1457 1456 1456 1455 1454 1454 1453 1452 1452 1451 1450
1477 1476 1476 1475 1474 1473 1472 1471 1471 1470 1469 1468 1467 1466 1465 1464 1464 1463 1462 1461 1461 1461 1460 1460 1459 1458 1457 1456 1456 1456 1455 1454 1454 1453 1452 1452 1451 1450 1450 1449 1448 1447 1447